FENGYUN 1C DEB, 30092

Orbit data source: Space-Track

FENGYUN 1C DEB, 30092 is space debris in SSO originally from a launch on Mon, 10 May 1999 UTC launched from the Taiyaun Space Center, China (TSC). Fengyun 1C debris stems from the Chinese weather satellite Fengyun-1C, which was intentionally destroyed by a Chinese anti-satellite missile in 2007. This event dramatically increased the amount of space debris, with thousands of trackable fragments posing hazards to satellites and human spaceflight. The Fengyun 1C debris cloud has become a focal point in discussions about space sustainability and the need for international regulations to prevent the creation of new debris.

Loading next visibility...
Identifier
30092, 1999-025QV
Orbit
SSO
Country
Flag of CNCN / PRC
Related business
Manufacturer
Unknown
Mission
Spacecraft
Bus & Motor
Unknown
Mass
Unknown
Launch date (UTC)
1999-05-10 (27 years ago)
Launch vehicle
Unknown
Launch site
Taiyaun Space Center, China (TSC)
Object type
Payload
Rocket body
Debris
Shape & HBR
Unknown shape, 0.1 m
Radar Cross Section
Medium (>0.1 m² and <1 m²)

Expand to show TLE details & history
Last TLE update: 15 hours ago

TLE from 15 hours ago
0 FENGYUN 1C DEB
1 30092U 99025QV  26254.01589821  .00000821  00000-0  26611-3 0  9992
2 30092  98.9247  89.5577 0082441 165.0174 348.7344 14.39874567 26587
Epoch: 2026-09-11T00:22Z
TLE epoch observation values (Epoch: 2026-09-11T00:22:53.605Z)
Latitude
26.12609°
Longitude
-81.81747°
Altitude
704.401 km
Speed
7.536 km/s
True Right ascension
18h 15m 48s
True Declination
25° 59' 22"
Sunlit
Object was in daylight at epoch
Visualization orbit readout
Latitude
Unknown
Longitude
Unknown
Altitude
Unknown
Speed
Unknown
Apparent Right ascension
Unknown
Apparent Declination
Unknown
Sunlit
N/A
Visualization observer readout
Local Sidereal Time
07:34:13
Azimuth
Unknown
Elevation
Unknown
Doppler factor
Unknown
Orbital elements
Apogee altitude
814.87 km
Perigee altitude
697.24 km
Semi-major axis
7,134.192 km
Eccentricity
0.00824
Inclination
98.9247°
RAAN
89.5577°
Arg. of periapsis
165.0174°
True anomaly
348.54796°
Mean anomaly
348.7344°
Eccentric anomaly
348.64137°
Mean motion
3.60185 °/min
Orbital period
99.95 mins
BSTAR
0.00026611
Loading maneuver chart data...
Computing Atmospheric mass density...

Documentation

Showing up to 5 results
|